"TOA5","AWS1","CR1000","7964","CR1000.Std.14","CPU:AWS1_114.CR1","64363","TBL110"
"TIMESTAMP","RECORD","Wind_spd_WVc(1)","Wind_spd_WVc(2)","Air_Temp_Avg","Humidity_Avg","SW_upper_Wm2_Avg","Rain_Tot","Press_Avg","Issui_Tot","Depth_cm","SR50A_Raw","Quality","Ground_Temp_Avg(1)","Ground_Temp_Avg(2)","SW_lower_Wm2_Avg","Albedo_Avg","SWC_per(1)","SWC_per(2)","Period(1)","Period(2)"
"TS","RN","","","","","","","","","","","","","","","","","","",""
"","","WVc","WVc","Avg","Avg","Avg","Tot","Avg","Tot","Smp","Smp","Smp","Avg","Avg","Avg","Avg","Smp","Smp","Smp","Smp"
"2018-06-19 00:00:00",345661,0.293,36.65,15.12,84.3,0,0,862.8593,0,-24.51,3.334,192,16.94,16.23,0.8147513,0,48.21,55.49,32.85,34.63
"2018-06-19 00:10:00",345662,0.193,81.4,14.99,86,0,0,862.8572,0,-25.12,3.341,176,16.99,16.23,0.2387411,0,48.16,55.43,32.84,34.61
"2018-06-19 00:20:00",345663,0.429,68.85,14.87,87.4,0,0,862.7307,0,-32.46,3.413,197,16.95,16.23,0.2425306,0,48.21,55.43,32.85,34.61
"2018-06-19 00:30:00",345664,0.288,218.5,15.03,86,0,0,862.6044,0,-16.65,3.258,177,16.93,16.23,0.2197934,0,48.21,55.43,32.85,34.61
"2018-06-19 00:40:00",345665,0.505,211,14.9,86.4,0,0,862.4211,0,16.57,2.935,272,16.93,16.23,0.01136862,0,48.16,55.43,32.84,34.61
"2018-06-19 00:50:00",345666,0.386,251,15.12,83.8,0,0,862.3516,0,15.65,2.944,246,16.89,16.23,0.2501097,0,48.21,55.43,32.85,34.61
"2018-06-19 01:00:00",345667,0.069,138.1,14.82,85.6,0,0,862.3538,0,15.64,2.945,242,16.91,16.23,0,0,48.16,55.43,32.84,34.61
"2018-06-19 01:10:00",345668,0.134,267.8,15.32,81.5,0.03144227,0,862.3748,0,15.38,2.944,248,16.9,16.23,0.7579082,0.627,48.21,55.43,32.85,34.61
"2018-06-19 01:20:00",345669,0.216,48.53,15.09,83.3,0,0,862.3685,0,15.48,2.947,265,16.85,16.23,0.1288444,0,48.16,55.43,32.84,34.61
"2018-06-19 01:30:00",345670,0.18,328.5,14.84,85.5,0.2947713,0,862.4969,0,15.36,2.945,254,16.84,16.23,0.3410587,0.415,48.16,55.43,32.84,34.61
"2018-06-19 01:40:00",345671,0.073,5.106,15.03,87.5,0.1336296,0,862.598,0,-23.92,3.33,170,16.84,16.23,0.2046352,0.354,48.16,55.43,32.84,34.61
"2018-06-19 01:50:00",345672,0.023,71.14,14.54,93.6,0,0,862.6044,0,-12.24,3.218,174,16.88,16.23,0,0,48.16,55.43,32.84,34.61
"2018-06-19 02:00:00",345673,0.081,164.7,14.67,90.4,0,0,862.6002,0,-24.1,3.332,174,16.83,16.23,0.0644222,0,48.21,55.43,32.85,34.61
"2018-06-19 02:10:00",345674,0.13,180.8,15.05,83.7,0,0,862.6022,0,15.44,2.946,244,16.75,16.23,0.3637959,0,48.21,55.43,32.85,34.61
"2018-06-19 02:20:00",345675,0.057,132.9,14.75,87.3,0,0,862.598,0,15.95,2.942,267,16.75,16.2,0,0,48.16,55.37,32.84,34.6
"2018-06-19 02:30:00",345676,0.009,70.56,14.75,88.2,0,0,862.5875,0,17.12,2.931,290,16.73,16.2,0,0,48.16,55.37,32.84,34.6
"2018-06-19 02:40:00",345677,0.168,198.7,14.88,85.8,0,0,862.6044,0,17.46,2.927,280,16.72,16.21,0.4433763,0,48.21,55.37,32.85,34.6
"2018-06-19 02:50:00",345678,0.323,180.6,14.88,84.2,0,0,862.6044,0,16.09,2.941,277,16.72,16.19,0.3486378,0,48.21,55.37,32.85,34.6
"2018-06-19 03:00:00",345679,0.425,180.9,14.48,85.7,0,0,862.6044,0,15.38,2.948,244,16.67,16.19,0.0833699,0,48.21,55.37,32.85,34.6
"2018-06-19 03:10:00",345680,0.471,175.7,14.4,84.5,0,0,862.6044,0,-23.32,3.327,178,16.67,16.19,0.07579082,0,48.21,55.37,32.85,34.6
"2018-06-19 03:20:00",345681,0.279,140.3,13.97,88.3,0,0,862.6044,0,16.09,2.945,252,16.72,16.19,0,0,48.21,55.37,32.85,34.6
"2018-06-19 03:30:00",345682,0.278,195.2,13.95,87.7,0,0,862.6044,0,15.93,2.947,270,16.66,16.2,0,0,48.21,55.37,32.85,34.6
"2018-06-19 03:40:00",345683,0.259,183,13.85,87.2,0,0,862.6044,0,16.13,2.946,273,16.59,16.21,0.1136862,0,48.21,55.37,32.85,34.6
"2018-06-19 03:50:00",345684,0.234,171.9,13.75,87.6,0,0,862.6044,0,15.63,2.95,269,16.57,16.22,0.09094898,0,48.16,55.37,32.84,34.6
"2018-06-19 04:00:00",345685,0.486,185.1,13.98,85.4,0,0,862.6044,0,15.89,2.947,242,16.58,16.24,0.3296945,0,48.16,55.37,32.84,34.6
"2018-06-19 04:10:00",345686,0.458,183.9,13.96,84.4,0,0,862.6044,0,16.25,2.943,240,16.59,16.22,0.2463263,0,48.21,55.37,32.85,34.6
"2018-06-19 04:20:00",345687,0.771,198.8,14.42,78.63,0,0,862.638,0,15.97,2.944,248,16.54,16.22,0.5873855,0,48.16,55.32,32.84,34.59
"2018-06-19 04:30:00",345688,0.281,180.5,14.23,78.98,0,0,862.7433,0,16.58,2.94,258,16.52,16.2,0.03031651,0,48.16,55.37,32.84,34.6
"2018-06-19 04:40:00",345689,0.406,178.8,14.02,80.5,0.5541707,0,862.6697,0,16.47,2.942,275,16.54,16.22,0.2122146,0.177,48.21,55.37,32.85,34.6
"2018-06-19 04:50:00",345690,0.061,144,13.44,84.8,7.160983,0,862.7518,0,16.03,2.947,270,16.54,16.21,1.144442,0.15,48.16,55.37,32.84,34.6
"2018-06-19 05:00:00",345691,0.362,174.2,13.94,81,17.69026,0,862.6149,0,16.13,2.946,256,16.44,16.22,3.664497,0.21,48.16,55.32,32.84,34.59
"2018-06-19 05:10:00",345692,0.549,198.9,14.25,78.05,22.41864,0,862.6823,0,-22.22,3.314,191,16.43,16.22,4.312557,0.192,48.16,55.32,32.84,34.59
"2018-06-19 05:20:00",345693,0.774,202.9,14.78,74.47,24.28982,0,862.7181,0,-24.2,3.333,192,16.45,16.21,3.914701,0.161,48.16,55.32,32.84,34.59
"2018-06-19 05:30:00",345694,0.462,207.3,14.81,75.09,24.51432,0,862.8572,0,-24.46,3.334,192,16.4,16.22,3.550966,0.145,48.16,55.32,32.84,34.59
"2018-06-19 05:40:00",345695,0.084,91.7,14.91,74.77,27.66217,0,862.8572,0,-25.2,3.342,188,16.41,16.2,4.255784,0.153,48.16,55.32,32.84,34.59
"2018-06-19 05:50:00",345696,0.367,313.9,14.87,75.7,31.0457,0,863.0446,0,-27.84,3.373,198,16.37,16.17,4.255712,0.136,48.16,55.32,32.84,34.59
"2018-06-19 06:00:00",345697,0.497,0.878,13.52,97.8,92.72757,0,863.1098,0,-24.6,3.345,212,16.32,16.15,14.02515,0.141,48.21,55.32,32.85,34.59
"2018-06-19 06:10:00",345698,0.122,120.2,13.32,100,90.05082,0,863.1098,0,-24.14,3.341,193,16.27,16.16,20.35745,0.253,48.21,55.32,32.85,34.59
"2018-06-19 06:20:00",345699,0.193,168.7,13.67,92.3,57.39006,0,863.0825,0,-24.04,3.336,194,16.29,16.15,15.13923,0.261,48.16,55.32,32.84,34.59
"2018-06-19 06:30:00",345700,0.037,75.3,14.56,83.1,133.7044,0,863.0256,0,-24.61,3.334,186,16.31,16.14,29.30076,0.253,48.16,55.32,32.84,34.59
"2018-06-19 06:40:00",345701,0.156,304.2,15.59,76.69,164.5139,0,863.0551,0,10.98,2.985,324,16.28,16.14,34.69328,0.256,48.21,55.32,32.85,34.59
"2018-06-19 06:50:00",345702,0.443,172.5,15.63,77.74,75.88991,0,862.994,0,-25.69,3.342,198,16.24,16.15,39.46053,0.523,48.16,55.32,32.84,34.59
"2018-06-19 07:00:00",345703,0.421,151.2,15.97,73.27,130.9768,0,862.9772,0,-24.3,3.326,246,16.23,16.19,39.22179,0.309,48.21,55.32,32.85,34.59
"2018-06-19 07:10:00",345704,0.427,221.8,16.4,65.97,72.03429,0,862.9877,0,12.15,2.97,279,16.23,16.2,37.43691,0.545,48.21,55.32,32.85,34.59
"2018-06-19 07:20:00",345705,0.486,145,16.66,68.64,96.89336,0,862.9014,0,17.48,2.917,292,16.23,16.16,38.1645,0.494,48.16,55.32,32.84,34.59
"2018-06-19 07:30:00",345706,0.364,170.9,16.97,64.55,107.851,0,862.973,0,15.98,2.93,246,16.16,16.09,42.24584,0.421,48.16,55.32,32.84,34.59
"2018-06-19 07:40:00",345707,0.135,47.07,17.39,61.04,236.6111,0,863.0572,0,-23.4,3.309,201,16.15,16.06,46.20213,0.353,48.21,55.32,32.85,34.59
"2018-06-19 07:50:00",345708,0.874,1.04,17.09,70.35,626.975,0,863.0909,0,15.12,2.939,251,16.15,16.06,59.02594,0.094,48.16,55.32,32.84,34.59
"2018-06-19 08:00:00",345709,0.707,13.19,16.88,75.69,660.4768,0,863.0172,0,16.31,2.927,261,16.15,16.06,81.52825,0.123,48.21,55.32,32.85,34.59
"2018-06-19 08:10:00",345710,0.762,10.26,17.23,74.86,698.0622,0,862.8572,0,-17.34,3.251,174,16.18,16.07,101.2225,0.145,48.21,55.32,32.85,34.59
"2018-06-19 08:20:00",345711,0.655,9.86,17.54,74.75,729.3866,0,862.851,0,-18.39,3.26,170,16.19,16.05,114.7436,0.157,48.21,55.32,32.85,34.59
"2018-06-19 08:30:00",345712,0.379,9.17,17.92,73.85,763.977,0,862.8177,0,-23.47,3.307,249,16.16,16.04,123.3762,0.161,48.16,55.26,32.84,34.57
"2018-06-19 08:40:00",345713,0.607,15.13,18.1,72.27,750.9758,0,862.7844,0,-25.97,3.331,261,16.17,16.01,120.1318,0.159,48.21,55.26,32.85,34.57
"2018-06-19 08:50:00",345714,0.792,19.03,18.22,69.63,857.4583,0,862.7744,0,28.7,2.801,272,16.14,16.03,141.1661,0.164,48.16,55.26,32.84,34.57
"2018-06-19 09:00:00",345715,0.659,12.59,18.48,68.44,784.5667,0,862.7077,0,-10.54,3.179,195,16.08,16.05,126.2251,0.16,48.21,55.26,32.85,34.57
"2018-06-19 09:10:00",345716,0.627,24.55,18.95,67.59,895.8712,0,862.533,0,-9.85,3.17,189,16.07,16.04,144.1311,0.161,48.16,55.26,32.84,34.57
"2018-06-19 09:20:00",345717,0.33,107.1,19.61,66.4,912.7077,0,862.5229,0,12.44,2.949,369,16.12,15.98,145.8149,0.16,48.16,55.26,32.84,34.57
"2018-06-19 09:30:00",345718,0.308,85.5,20.14,62.04,911.6537,0,862.527,0,11.31,2.959,256,16.12,15.94,144.5827,0.159,48.16,55.26,32.84,34.57
"2018-06-19 09:40:00",345719,0.37,22.77,20.27,56.57,947.7217,0,862.469,0,10.63,2.966,234,16.1,15.91,149.9638,0.158,48.16,55.26,32.84,34.57
"2018-06-19 09:50:00",345720,0.361,40.72,20.34,55.33,876.9598,0,862.4724,0,10.34,2.968,295,16.08,15.91,136.3941,0.155,48.16,55.26,32.84,34.57
"2018-06-19 10:00:00",345721,0.408,102,20.38,53.95,924.7589,0,862.5087,0,-12.3,3.185,193,16.07,15.87,147.5936,0.159,48.11,55.26,32.82,34.57
"2018-06-19 10:10:00",345722,0.283,217.7,20.92,53.88,856.1755,0,862.4504,0,-14.21,3.202,189,16.07,15.86,134.6596,0.157,48.11,55.26,32.82,34.57
"2018-06-19 10:20:00",345723,0.342,350.5,20.55,50.04,950.6768,0,862.3542,0,11.19,2.958,266,16.06,15.82,152.5758,0.16,48.11,55.2,32.82,34.56
"2018-06-19 10:30:00",345724,0.26,92,21.03,49.41,939.2719,0,862.5007,0,-11.41,3.174,174,16.1,15.82,151.535,0.161,48.11,55.2,32.82,34.56
"2018-06-19 10:40:00",345725,0.339,42.14,21.09,45.43,1042.154,0,862.4476,0,-14.55,3.206,266,16.16,15.82,172.9782,0.166,48.05,55.2,32.81,34.56
"2018-06-19 10:50:00",345726,0.33,5.497,21.23,46.5,1047.919,0,862.3435,0,-14.51,3.202,187,16.17,15.83,174.3669,0.166,48.11,55.2,32.82,34.56
"2018-06-19 11:00:00",345727,0.311,73.63,21.86,46.95,981.3187,0,862.3849,0,10.16,2.961,238,16.27,15.82,158.8318,0.161,48.05,55.2,32.81,34.56
"2018-06-19 11:10:00",345728,0.385,3.137,21.87,46.75,946.2853,0,862.275,0,-22.23,3.272,199,16.27,15.8,153.6693,0.161,48.05,55.2,32.81,34.56
"2018-06-19 11:20:00",345729,0.452,169.1,21.98,44.53,1073.092,0,862.2737,0,19.96,2.865,273,16.32,15.78,177.5689,0.165,48.05,55.2,32.81,34.56
"2018-06-19 11:30:00",345730,0.555,91.4,22.11,45.31,890.6309,0,862.2363,0,-25.36,3.304,292,16.44,15.78,158.3518,0.178,48,55.26,32.8,34.57
"2018-06-19 11:40:00",345731,0.264,306.2,21.5,48.73,582.4329,0,862.2277,0,-25.22,3.308,207,16.53,15.79,87.53369,0.15,48,55.2,32.8,34.56
"2018-06-19 11:50:00",345732,0.303,6.622,20.82,47.73,557.5601,0,862.0775,0,10.92,2.961,249,16.62,15.81,87.28055,0.156,47.95,55.15,32.78,34.55
"2018-06-19 12:00:00",345733,0.146,287.6,21.23,49.2,767.8802,0,862.0328,0,21.61,2.852,333,16.68,15.8,126.6345,0.165,48,55.2,32.8,34.56
"2018-06-19 12:10:00",345734,0.156,281,21.46,52.71,717.3241,0,862.0336,0,318,0,0,16.8,15.8,115.041,0.16,47.95,55.2,32.78,34.56
"2018-06-19 12:20:00",345735,0.541,326.8,20.86,55.27,572.1142,0,862.0975,0,-25.64,3.313,223,16.87,15.8,89.82961,0.156,47.89,55.2,32.77,34.56
"2018-06-19 12:30:00",345736,0.537,20.65,20.59,53.28,686.4324,0,862.1398,0,-17.81,3.237,190,16.97,15.82,113.6395,0.162,47.89,55.2,32.77,34.56
"2018-06-19 12:40:00",345737,0.4,23.82,21.2,53.53,710.8278,0,862.127,0,-21.33,3.27,251,17.03,15.8,116.49,0.163,47.89,55.15,32.77,34.55
"2018-06-19 12:50:00",345738,0.867,25.38,20.97,52.34,639.3304,0,862.056,0,18.93,2.882,323,17.14,15.81,106.5125,0.161,47.89,55.15,32.77,34.55
"2018-06-19 13:00:00",345739,0.343,69.21,21.16,53.25,748.7974,0,862.0613,0,16.45,2.905,345,17.2,15.82,124.1794,0.162,47.84,55.15,32.76,34.55
"2018-06-19 13:10:00",345740,0.209,259.1,20.86,56.97,573.8803,0,862.1176,0,24.74,2.826,420,17.28,15.8,93.20755,0.154,47.84,55.15,32.76,34.55
"2018-06-19 13:20:00",345741,0.317,153.2,20.88,58.46,446.1972,0,862.0814,0,14.45,2.926,274,17.36,15.8,66.11612,0.142,47.84,55.15,32.76,34.55
"2018-06-19 13:30:00",345742,0.362,33.24,21.03,58.67,735.7569,0,862.0624,0,318,0,0,17.39,15.8,124.9601,0.162,47.84,55.15,32.76,34.55
"2018-06-19 13:40:00",345743,0.335,200.9,20.91,60.72,361.59,0,862.0627,0,-17.38,3.234,193,17.47,15.83,51.52639,0.135,47.79,55.15,32.74,34.55
"2018-06-19 13:50:00",345744,0.352,49.33,20.59,60.24,531.7123,0,862.0518,0,-24.55,3.3,204,17.51,15.8,86.14384,0.159,47.79,55.15,32.74,34.55
"2018-06-19 14:00:00",345745,0.424,330.7,21.37,57.48,877.5262,0,862.0549,0,318,0,0,17.59,15.86,149.9787,0.168,47.79,55.15,32.74,34.55
"2018-06-19 14:10:00",345746,0.558,330.6,21.44,55.36,774.5645,0,861.996,0,18.51,2.886,245,17.66,15.83,126.097,0.157,47.73,55.09,32.73,34.53
"2018-06-19 14:20:00",345747,0.267,43.43,20.91,59.6,418.2961,0,862.0507,0,-25.07,3.305,225,17.69,15.84,62.75859,0.14,47.73,55.09,32.73,34.53
"2018-06-19 14:30:00",345748,0.69,50.15,21.04,57.24,390.171,0,862.0521,0,8.79,2.981,242,17.69,15.84,56.55132,0.145,47.73,55.09,32.73,34.53
"2018-06-19 14:40:00",345749,0.481,319.8,20.53,58.91,422.985,0,861.8674,0,-24.45,3.302,205,17.79,15.85,64.08871,0.151,47.68,55.09,32.71,34.53
"2018-06-19 14:50:00",345750,0.373,49.34,20.87,59.42,499.8456,0,861.8231,0,-8.58,3.148,195,17.86,15.84,73.80131,0.147,47.68,55.09,32.71,34.53
"2018-06-19 15:00:00",345751,0.423,334.4,20.73,59.63,479.5182,0,861.9957,0,14.85,2.923,299,17.92,15.85,64.00914,0.133,47.68,55.09,32.71,34.53
"2018-06-19 15:10:00",345752,0.437,343.4,20.83,57.83,653.5236,0,861.9725,0,11.44,2.955,256,17.97,15.89,76.13567,0.117,47.62,55.09,32.7,34.53
"2018-06-19 15:20:00",345753,0.264,342.6,20.68,58.53,532.1486,0,861.9297,0,-9.9,3.161,170,18.01,15.95,57.64271,0.11,47.62,55.03,32.7,34.52
"2018-06-19 15:30:00",345754,0.454,356.4,20.77,57.98,484.9459,0,861.9059,0,17.49,2.898,357,18.02,15.93,48.42275,0.105,47.57,55.03,32.69,34.52
"2018-06-19 15:40:00",345755,0.506,148.8,20.53,59.28,313.9943,0,861.9031,0,28.9,2.788,270,18.03,15.96,41.3401,0.139,47.57,55.03,32.69,34.52
"2018-06-19 15:50:00",345756,0.357,166.9,20.33,60.49,209.5195,0,862.0515,0,-10.57,3.17,170,18.14,15.96,33.36312,0.159,47.57,55.03,32.69,34.52
"2018-06-19 16:00:00",345757,0.341,114.9,20.27,60.25,170.1734,0,861.9124,0,10.58,2.966,308,18.17,15.95,25.13981,0.146,47.57,55.03,32.69,34.52
"2018-06-19 16:10:00",345758,0.197,4.252,20.42,63.03,286.4037,0,862.0349,0,-23.47,3.292,188,18.17,15.99,46.0884,0.163,47.52,55.03,32.67,34.52
"2018-06-19 16:20:00",345759,0.467,43.75,20.7,61.92,236.9882,0,862.0768,0,10.8,2.961,238,18.24,16.02,39.79018,0.167,47.52,55.03,32.67,34.52
"2018-06-19 16:30:00",345760,0.344,60.44,20.36,62.75,170.2048,0,861.931,0,-11.15,3.178,170,18.21,16.02,24.95413,0.146,47.52,54.97,32.67,34.51
"2018-06-19 16:40:00",345761,0.296,32.71,19.8,66.28,186.9518,0,862.027,0,17.67,2.901,242,18.28,16.05,28.3344,0.151,47.46,54.97,32.66,34.51
"2018-06-19 16:50:00",345762,0.286,18.5,19.37,69.39,137.6071,0,861.9462,0,-23.87,3.304,200,18.31,16.06,19.9292,0.145,47.46,54.97,32.66,34.51
"2018-06-19 17:00:00",345763,0.197,5.361,19.12,71.75,144.1038,0,862.025,0,-11.64,3.187,192,18.36,16.06,21.55491,0.149,47.41,54.97,32.65,34.51
"2018-06-19 17:10:00",345764,0.436,60.14,19.01,72.96,143.475,0,862.1241,0,-32.48,3.389,315,18.37,16.06,22.14608,0.154,47.41,54.97,32.65,34.51
"2018-06-19 17:20:00",345765,0.253,95.4,18.92,74.21,108.5898,0,862.1431,0,-30.55,3.371,270,18.37,16.06,16.18513,0.149,47.41,54.97,32.65,34.51
"2018-06-19 17:30:00",345766,0.202,37.54,18.59,75.51,70.64291,0,862.3538,0,-10.48,3.18,180,18.37,16.06,9.451115,0.133,47.41,54.97,32.65,34.51
"2018-06-19 17:40:00",345767,0.129,54.61,18.13,76.99,65.91479,0,862.3811,0,-19.13,3.265,261,18.4,16.07,9.223742,0.139,47.36,54.97,32.63,34.51
"2018-06-19 17:50:00",345768,0.163,318.5,18.01,77.25,61.28884,0,862.4022,0,10.49,2.979,254,18.41,16.14,8.920579,0.141,47.41,54.97,32.65,34.51
"2018-06-19 18:00:00",345769,0.018,78.87,17.73,79.07,20.33136,0,862.6149,0,9.91,2.986,253,18.42,16.2,1.720452,0.084,47.36,54.92,32.63,34.49
"2018-06-19 18:10:00",345770,0.181,32.63,17.5,79.87,29.95662,0,862.6339,0,9.12,2.995,240,18.41,16.2,4.240496,0.141,47.36,54.92,32.63,34.49
"2018-06-19 18:20:00",345771,0.177,21.04,17.31,80,13.22147,0,862.6254,0,10.04,2.986,244,18.4,16.17,1.40592,0.103,47.36,54.92,32.63,34.49
"2018-06-19 18:30:00",345772,0.119,85.7,17.12,81,12.74198,0,862.7413,0,-25.43,3.332,198,18.41,16.15,1.440026,0.108,47.36,54.92,32.63,34.49
"2018-06-19 18:40:00",345773,0.035,14.91,16.96,82.5,14.29444,0,862.8108,0,-25.54,3.333,196,18.41,16.16,1.879612,0.13,47.3,54.92,32.62,34.49
"2018-06-19 18:50:00",345774,0.073,38.44,16.8,83.8,3.572628,0,862.9645,0,-25.46,3.334,197,18.41,16.21,0.2652679,0.037,47.3,54.92,32.62,34.49
"2018-06-19 19:00:00",345775,0,0,16.69,84.9,1.273412,0,863.0825,0,-24.66,3.327,197,18.41,16.25,0.01136862,0.007,47.3,54.92,32.62,34.49
"2018-06-19 19:10:00",345776,0,0,16.55,86,0.08253595,0,863.0193,0,-25.28,3.334,196,18.45,16.31,0,0,47.3,54.92,32.62,34.49
"2018-06-19 19:20:00",345777,0.143,139.3,16.34,87.3,0,0,863.1056,0,16.22,2.932,516,18.49,16.32,0,0,47.3,54.92,32.62,34.49
"2018-06-19 19:30:00",345778,0.541,140.1,16.07,90.4,0,0,863.0151,0,-14.48,3.232,195,18.49,16.32,0,0,47.25,54.92,32.61,34.49
"2018-06-19 19:40:00",345779,0.55,142.9,15.84,92.2,0,0,862.8782,0,16.63,2.93,249,18.41,16.32,0,0,47.3,54.92,32.62,34.49
"2018-06-19 19:50:00",345780,0.396,143.6,15.76,89,0,0,863.072,0,-11.35,3.203,196,18.34,16.35,0,0,47.25,54.86,32.61,34.48
"2018-06-19 20:00:00",345781,0.711,132.9,15.58,90,0,0,862.9393,0,-14.85,3.238,188,18.37,16.34,0,0,47.3,54.86,32.62,34.48
"2018-06-19 20:10:00",345782,0.374,134.4,15.51,90.4,0,0,862.855,0,-11.37,3.204,195,18.38,16.4,0.1212653,0,47.25,54.86,32.61,34.48
"2018-06-19 20:20:00",345783,0.45,86.3,15.39,90.1,0,0,862.8298,0,-9.5,3.187,184,18.32,16.41,0.04168495,0,47.25,54.86,32.61,34.48
"2018-06-19 20:30:00",345784,0.372,103.7,15.19,92.2,0,0,862.6423,0,-10.79,3.2,189,18.25,16.41,0,0,47.25,54.86,32.61,34.48
"2018-06-19 20:40:00",345785,0.291,51.03,15.15,93.3,0,0,862.7497,0,16.79,2.932,254,18.31,16.41,0.181898,0,47.25,54.86,32.61,34.48
"2018-06-19 20:50:00",345786,0.142,65.12,15.21,93.4,0,0,862.6443,0,17.57,2.924,250,18.29,16.41,0.3789541,0,47.25,54.86,32.61,34.48
"2018-06-19 21:00:00",345787,0.194,100.6,15.24,93.4,0,0,862.5959,0,17.2,2.928,245,18.23,16.48,0.2538992,0,47.25,54.86,32.61,34.48
"2018-06-19 21:10:00",345788,0.289,42.28,15.11,93.9,0,0,862.7792,0,16.53,2.935,262,18.21,16.53,0.2273725,0,47.2,54.86,32.59,34.48
"2018-06-19 21:20:00",345789,0.187,65.3,15.11,94.7,0,0,862.8529,0,16.63,2.934,239,18.23,16.51,0.2273725,0,47.25,54.8,32.61,34.46
"2018-06-19 21:30:00",345790,0.122,28.49,15.05,97.2,0,0,862.8593,0,17.25,2.928,245,18.22,16.5,0.2008457,0,47.25,54.8,32.61,34.46
"2018-06-19 21:40:00",345791,0.13,113.2,15.01,99.2,0,0,862.855,0,16.37,2.937,241,18.15,16.49,0.04168495,0,47.25,54.8,32.61,34.46
"2018-06-19 21:50:00",345792,0.274,66.81,14.81,100,0,0,862.8318,0,-14.19,3.236,193,18.15,16.49,0.003789541,0,47.2,54.8,32.59,34.46
"2018-06-19 22:00:00",345793,0.438,96.3,14.62,100,0,0,862.8466,0,-12.45,3.22,186,18.15,16.49,0,0,47.2,54.8,32.59,34.46
"2018-06-19 22:10:00",345794,0.307,55.64,14.57,100,0,0,862.7433,0,-13.01,3.225,185,18.09,16.5,0,0,47.2,54.8,32.59,34.46
"2018-06-19 22:20:00",345795,0.301,89.9,14.52,100,0,0,862.8572,0,16.93,2.934,240,18.02,16.52,0.07200127,0,47.25,54.75,32.61,34.45
"2018-06-19 22:30:00",345796,0.357,41.94,14.38,100,0,0,862.8424,0,-12.58,3.222,180,18.05,16.56,0.01136862,0,47.2,54.75,32.59,34.45
"2018-06-19 22:40:00",345797,0.425,51.53,14.39,100,0,0,862.6992,0,16.99,2.934,262,18.06,16.58,0.07200127,0,47.2,54.75,32.59,34.45
"2018-06-19 22:50:00",345798,0.334,70.95,14.31,100,0,0,862.6085,0,16.63,2.938,261,18.02,16.57,0.1477921,0,47.2,54.75,32.59,34.45
"2018-06-19 23:00:00",345799,0.222,94.2,14.27,100,0,0,862.5854,0,-12.09,3.218,186,17.96,16.55,0.1856875,0,47.2,54.75,32.59,34.45
"2018-06-19 23:10:00",345800,0.171,132.2,14.25,100,0,0,862.5623,0,-23.68,3.331,190,17.97,16.53,0.1061071,0,47.2,54.75,32.59,34.45
"2018-06-19 23:20:00",345801,0.375,102.9,14.19,100,0,0,862.4275,0,-24.35,3.338,190,17.94,16.51,0.1591607,0,47.2,54.75,32.59,34.45
"2018-06-19 23:30:00",345802,0.322,97.6,14.16,100,0,0,862.3516,0,-26.71,3.361,188,17.89,16.51,0.2652679,0,47.2,54.75,32.59,34.45
"2018-06-19 23:40:00",345803,0.049,101,14.12,100,0,0,862.1979,0,-22.86,3.324,186,17.88,16.51,0.3789541,0,47.2,54.75,32.59,34.45
"2018-06-19 23:50:00",345804,0.037,46.63,14.05,100,0,0,861.9852,0,5.385,3.049,284,17.88,16.51,0.5305358,0,47.2,54.75,32.59,34.45
